Home > Weather > Colonia > Past weeks

Flag for Micronesia Past Weather in Colonia, Yap, Micronesia — Yesterday and Last 2 Weeks

Now
84 °F

Cloudy.


Feels Like: 95 °F
Forecast: 78 / 86 °F
Wind: 6 mph from North

Location: Yap Island

Current Time: Jul 1, 2016 at 4:17:25 PM

Latest Report: Jul 1, 2016 at 3:50 PM


Visibility: 12 mi

Pressure: 29.76 "Hg

Humidity: 80%

Dew Point: 77 °F

Location of ColoniaLocation

Past Weather in Colonia — Graph

°F

Colonia Temperature Yesterday

Maximum temperature yesterday: 92 °F (at 9:51 AM)
Minimum temperature yesterday: 78 °F (at 6:52 AM)
Average temperature yesterday: 85 °F

High & Low Weather Summary for the Past Weeks

 TemperatureHumidityPressure
High94 °F (Jun 22, 1:53 PM)98% (Jun 17, 5:53 AM)29.90 "Hg (Jun 17, 5:53 AM)
Low76 °F (Jun 25, 12:54 AM)61% (Jun 25, 12:52 PM)29.70 "Hg (Jun 19, 5:52 PM)
Average84 °F82%29.81 "Hg
* Reported Jun 16 2:51 PM — Jul 1 2:50 PM, Colonia, Weather by CustomWeather, © 2016

Note: Actual official high and low records may vary slightly from our data, if they occured in-between our weather recording intervals... More about our weather records

Advertising

Colonia Weather History for the Previous 24 Hours

Scroll right to see more
 ConditionsComfort  
Time TempWeatherWind HumidityBarometerVisibility
2:50 PM
Fri, Jul 1
89 °FCloudy.9 mph70%29.78 "Hg12 mi
1:53 PM90 °FBroken clouds.10 mph67%29.78 "Hg12 mi
12:52 PM89 °FPartly sunny.8 mph71%29.80 "Hg12 mi
11:51 AM89 °FBroken clouds.12 mph71%29.82 "Hg12 mi
10:51 AM88 °FBroken clouds.10 mph73%29.83 "Hg12 mi
9:53 AM85 °FBroken clouds.9 mph76%29.83 "Hg12 mi
8:54 AM84 °FBroken clouds.8 mph83%29.81 "Hg12 mi
7:53 AM85 °FBroken clouds.8 mph78%29.80 "Hg12 mi
6:53 AM83 °FPartly cloudy.8 mph82%29.78 "Hg12 mi
5:51 AM83 °FPartly cloudy.8 mph80%29.77 "Hg12 mi
4:52 AM83 °FPartly cloudy.6 mph81%29.76 "Hg12 mi
3:52 AM83 °FPartly cloudy.6 mph81%29.78 "Hg12 mi
2:53 AM82 °FPartly cloudy.5 mph81%29.78 "Hg12 mi
1:53 AM83 °FPartly cloudy.5 mph81%29.80 "Hg12 mi
12:50 AM83 °FPartly cloudy.6 mph82%29.83 "Hg12 mi
11:52 PM
Thu, Jun 30
83 °FPartly cloudy.9 mph81%29.85 "Hg12 mi
10:51 PM83 °FPartly cloudy.9 mph80%29.84 "Hg12 mi
9:54 PM83 °FPartly cloudy.8 mph83%29.84 "Hg12 mi
8:50 PM83 °FPartly cloudy.8 mph81%29.83 "Hg12 mi
7:51 PM83 °FBroken clouds.9 mph80%29.83 "Hg12 mi
6:52 PM85 °FBroken clouds.8 mph77%29.81 "Hg12 mi
5:52 PM89 °FBroken clouds.9 mph67%29.78 "Hg12 mi
4:50 PM91 °FPartly sunny.8 mph65%29.78 "Hg12 mi
Weather by CustomWeather, © 2016

See weather overviewHow to use our weather pages